map of TZX home
TZX - Airport
Location
City:  Trabzon, Trabzon, Turkey
Name:Trabzon AB
ICAO:LTCG
IATA:TZX

Details
Type:Airport (Aerodrome, Airfield)
Use:Public/Civil, Military
Latitude:4059'42"N (40.995108)
Longitude:3947'23"E (39.789728)
Datum:WGS 1984
Elevation:104 ft (32 m)
Variation:6.29E (WMM2015 magnetic declination)
0.09 annual change
Runways:1
Longest:8661 × 148 ft (2640 × 45 m), paved

Time
Time Zone:UTC+3
Local Time:

Weather
METAR:LTCG 230350Z 22010G20KT 9999 BKN035 25/19 Q1009 NOSIG RMK RWY29 VRB02KT
TAF:LTCG 221040Z 2212/2312 27008KT 9999 BKN035
TEMPO 2212/2215 -SHRA SCT012 FEW020CB BKN028 PROB40 2215/2219 TSRA FEW020CB BKN028
BECMG 2305/2307 28018G28KT -SHRA SCT012 BKN028
TEMPO 2308/2312 2000 +TSRA SCT008 SCT020CB BKN028

Related Locations
Nearby:
Farthest:RVV: 11176 mi / 17986 km
Raivavae, Tubuai Islands, Austral Islands, PF

Find:

   beyond  
but within

Other Information
Maps:
NOTAMs:
Links:
Sources:

  
flag of Turkey   

Sectional Chart

Flight Planning
at skyvector.com

Satellite Image

Google Maps Satellite view

 

Copyright © 2004-2017 Karl L. Swartz. All rights reserved.
The Great Circle Mapper name and logo are trademarks of the Great Circle Mapper.
All other trademarks mentioned herein belong to their respective owners.
Please see credits for attibutions and further copyright information.

  Follow gcmap on Facebook Follow gcmap on Twitter Follow gcmap on Google+ GCmap on LinkedIn

hCard Microformat

Geo Microformat